Waarnemingen

Advertentie
Mijn weer
Ritsem, Zweden (2013): temperatuur & dauwpunt: 22.10.2020 00:00:00 - 28.10.2020 00:00:00 (CET)Ritsem, Zweden (2013): windsnelheid & windstoten: 22.10.2020 00:00:00 - 28.10.2020 00:00:00 (CET)Ritsem, Zweden (2013): windrichting: 22.10.2020 00:00:00 - 28.10.2020 00:00:00 (CET)Ritsem, Zweden (2013): luchtdruk: 22.10.2020 00:00:00 - 28.10.2020 00:00:00 (CET)Ritsem, Zweden (2013): zicht: 22.10.2020 00:00:00 - 28.10.2020 00:00:00 (CET)Ritsem, Zweden (2013): neerslag: 22.10.2020 00:00:00 - 28.10.2020 00:00:00 (CET)
Datum & Tijd tt [°C] td [°C] ff [km/u] ff [kn] fx [km/u] fx [kn] dd ppp [hPa] vv [km] rr [mm]
28.10.2020 00:00:00 - - - - - - - - - -
27.10.2020 23:00:00 -2,4 -3,4 5 3 13 7 NO 994,4 50 0,0
27.10.2020 22:00:00 -2,9 -4,2 10 6 16 9 NNO 994,2 50 0,0
27.10.2020 21:00:00 -2,8 -3,9 10 6 13 7 NNO 994,4 50 0,0
27.10.2020 20:00:00 -3,8 -5,2 9 5 - - NNO 994,4 50 0,0
27.10.2020 19:00:00 -2,7 -5,0 13 7 19 10 N 994,2 50 0,0
27.10.2020 18:00:00 -2,4 -4,7 12 7 20 11 N 994,3 50 0,0
27.10.2020 17:00:00 -2,5 -4,8 13 7 19 11 N 994,4 50 0,0
27.10.2020 16:00:00 -1,2 -3,4 8 5 22 12 NW 994,6 50 0,0
27.10.2020 15:00:00 -1,6 -4,3 12 6 22 12 N 995,0 50 0,0
27.10.2020 14:00:00 -1,5 -3,8 12 7 23 12 NNO 995,4 50 0,0
27.10.2020 13:00:00 -0,8 -2,4 8 5 20 11 ZO 996,4 50 0,0
27.10.2020 12:00:00 -0,1 -3,5 5 3 23 13 ZZW 996,5 50 0,0
27.10.2020 11:00:00 -1,1 -3,5 15 8 31 17 OZO 997,2 50 0,0
27.10.2020 10:00:00 -1,8 -4,1 9 5 27 15 OZO 997,9 50 0,0
27.10.2020 09:00:00 -3,8 -6,1 9 5 30 16 NNO 998,5 50 0,0
27.10.2020 08:00:00 -2,5 -4,4 12 6 25 14 OZO 998,7 50 0,0
27.10.2020 07:00:00 -3,3 -4,9 7 4 18 10 NW 999,3 50 0,0
27.10.2020 06:00:00 -2,9 -5,7 10 5 22 12 NNO 999,3 50 0,0
27.10.2020 05:00:00 -2,4 -5,4 13 7 19 11 N 999,2 50 0,0
27.10.2020 04:00:00 -2,6 -4,6 8 4 11 6 NW 999,6 50 0,0
27.10.2020 03:00:00 -2,8 -5,4 3 2 11 6 NW 1000,2 50 0,0
27.10.2020 02:00:00 -1,6 -4,4 3 1 10 5 W 1000,0 50 0,0
27.10.2020 01:00:00 0,8 -3,9 5 3 11 6 NNW 999,9 50 0,0
27.10.2020 00:00:00 -0,5 -3,7 4 2 17 9 NNO 999,8 50 0,0
26.10.2020 23:00:00 -0,4 -2,8 5 3 16 9 O 999,6 50 0,0
26.10.2020 22:00:00 -0,3 -2,2 5 3 17 9 NNO 998,8 50 0,0
26.10.2020 21:00:00 -0,5 -3,7 6 4 16 9 O 998,5 50 0,0
26.10.2020 20:00:00 -2,3 -3,6 7 4 15 8 NNO 998,1 50 0,0
26.10.2020 19:00:00 -1,5 -2,6 8 4 13 7 NW 997,4 50 0,0
26.10.2020 18:00:00 -0,5 -1,5 4 2 14 8 NNO 997,1 50 0,0
26.10.2020 17:00:00 -0,3 -1,9 8 4 25 14 NNW 996,9 50 0,0
26.10.2020 16:00:00 -0,9 -2,3 6 3 14 7 W 996,6 50 0,0
26.10.2020 15:00:00 0,0 -2,2 4 2 11 6 WNW 996,6 50 0,0
26.10.2020 14:00:00 0,8 -1,4 3 2 - - NW 996,5 50 0,0
26.10.2020 13:00:00 2,1 -1,2 4 2 12 7 ZW 996,4 50 0,0
26.10.2020 12:00:00 3,1 -2,2 3 1 11 6 WZW 996,1 50 0,0
26.10.2020 11:00:00 2,8 -1,6 6 4 11 6 NW 996,3 50 0,0
26.10.2020 10:00:00 0,9 -2,7 5 3 16 9 WZW 996,6 50 0,0
26.10.2020 09:00:00 0,7 -2,5 8 5 14 8 WNW 996,2 50 0,0
26.10.2020 08:00:00 0,0 -3,2 4 2 20 11 ZW 995,8 50 0,0
26.10.2020 07:00:00 -1,2 -4,4 13 7 21 11 NNO 995,3 50 0,0
26.10.2020 06:00:00 -1,1 -3,3 3 2 13 7 N 995,0 50 0,0
26.10.2020 05:00:00 -0,1 -2,8 5 3 13 7 ZW 994,8 50 0,0
26.10.2020 04:00:00 1,6 -2,2 7 4 22 12 W 994,5 50 0,0
26.10.2020 03:00:00 1,9 -2,2 12 6 36 19 ZZO 993,9 18 0,0
26.10.2020 02:00:00 1,6 -4,1 19 11 45 24 ZO 993,6 50 0,0
26.10.2020 01:00:00 1,7 -4,4 26 14 66 35 ZO 993,0 50 0,0
26.10.2020 00:00:00 1,3 -5,0 30 16 59 32 ZO 992,5 43 0,0
25.10.2020 23:00:00 1,1 -5,0 29 15 71 39 ZO 993,4 50 0,0
25.10.2020 22:00:00 0,8 -5,2 40 21 81 44 OZO 993,3 50 0,0
25.10.2020 21:00:00 0,9 -6,0 40 21 85 46 OZO 994,9 7 0,0
25.10.2020 20:00:00 0,8 -6,1 42 23 77 42 OZO 995,1 20 0,0
25.10.2020 19:00:00 0,0 -5,8 31 17 88 48 OZO 997,0 12 0,0
25.10.2020 18:00:00 -0,4 -6,2 42 23 77 42 ZO 997,8 15 0,1
25.10.2020 17:00:00 -1,3 -5,5 30 16 72 39 ZO 998,6 3,4 0,1
25.10.2020 16:00:00 -1,5 -4,3 37 20 69 37 ZO 999,4 1,1 0,0
25.10.2020 15:00:00 -1,0 -4,7 37 20 74 40 ZO 1000,0 2,1 0,0
25.10.2020 14:00:00 -0,1 -6,1 39 21 74 40 OZO 1000,0 32 0,0
25.10.2020 13:00:00 0,1 -6,7 33 18 70 38 OZO 1000,4 50 0,0
25.10.2020 12:00:00 -0,3 -5,7 34 19 66 36 OZO 1001,5 50 0,0
25.10.2020 11:00:00 -0,6 -5,2 33 18 63 34 OZO 1002,4 50 0,0
25.10.2020 10:00:00 -0,7 -4,6 26 14 55 30 ZO 1002,8 50 0,0
25.10.2020 09:00:00 -0,7 -4,8 26 14 49 26 OZO 1003,1 50 0,0
25.10.2020 08:00:00 -0,7 -5,5 24 13 40 22 OZO 1003,6 50 0,0
25.10.2020 07:00:00 -0,7 -5,9 16 9 32 18 OZO 1003,4 50 0,0
25.10.2020 06:00:00 -0,9 -5,9 9 5 21 12 O 1003,8 50 0,0
25.10.2020 05:00:00 -3,1 -5,9 7 4 22 12 NO 1004,4 50 0,0
25.10.2020 04:00:00 -5,4 -8,3 18 10 27 14 NNO 1004,6 50 0,0
25.10.2020 03:00:00 -5,6 -8,3 18 10 24 13 NNO 1005,0 50 0,0
25.10.2020 02:00:00 -5,1 -7,5 11 6 24 13 NNO 1005,3 50 0,0
25.10.2020 01:00:00 - - - - - - - - - -
25.10.2020 00:00:00 -7,0 -9,2 18 10 24 13 NNO 1005,1 50 0,0
24.10.2020 23:00:00 -5,3 -7,4 16 9 20 11 NO 1004,6 50 0,0
24.10.2020 22:00:00 -4,7 -7,0 - - - - - 1004,6 - 0,0
24.10.2020 21:00:00 -5,8 -7,6 - - 19 10 - 1004,7 - 0,0
24.10.2020 20:00:00 -3,5 -6,3 - - 19 10 - 1004,3 - 0,0
24.10.2020 19:00:00 -4,8 -7,2 10 6 16 9 NO 1004,2 50 0,0
24.10.2020 18:00:00 -4,2 -7,3 11 6 19 10 NNO 1003,8 50 0,0
24.10.2020 17:00:00 -3,9 -7,0 14 8 18 10 NNO 1003,7 50 0,0
24.10.2020 16:00:00 -2,5 -6,9 12 6 18 10 NNO 1003,5 50 0,0
24.10.2020 15:00:00 -1,1 -7,2 4 2 14 8 NNW 1003,2 50 0,0
24.10.2020 14:00:00 -1,1 -7,2 8 4 18 10 NNO 1003,0 50 0,0
24.10.2020 13:00:00 -0,4 -6,6 13 7 21 11 NNW 1002,7 50 0,0
24.10.2020 12:00:00 0,3 -6,6 10 5 20 11 NW 1001,9 44 0,0
24.10.2020 11:00:00 -0,6 -6,0 11 6 21 11 NW 1001,7 50 0,0
24.10.2020 10:00:00 -0,9 -6,1 11 6 20 11 NW 1001,8 50 0,0
24.10.2020 09:00:00 -1,0 -6,0 11 6 16 8 NW 1001,3 50 0,0
24.10.2020 08:00:00 -1,6 -6,5 9 5 16 9 NW 1001,0 50 0,0
24.10.2020 07:00:00 -2,3 -5,8 8 4 14 8 N 1000,9 50 0,0
24.10.2020 06:00:00 -2,2 -5,3 7 4 10 6 NW 1000,5 50 0,0
24.10.2020 05:00:00 -2,8 -5,0 6 4 15 8 N 1000,1 50 0,0
24.10.2020 04:00:00 -1,4 -2,8 9 5 16 9 NO 999,6 50 0,0
24.10.2020 03:00:00 -1,2 -3,4 11 6 19 10 NW 999,3 50 0,0
24.10.2020 02:00:00 -1,9 -3,9 9 5 16 9 WNW 999,3 50 0,0
24.10.2020 01:00:00 -1,0 -3,0 6 3 10 6 WNW 998,7 50 0,0
24.10.2020 00:00:00 -1,1 -3,6 7 4 21 11 WNW 998,6 14 0,0
23.10.2020 23:00:00 -1,9 -4,1 9 5 13 7 W 998,5 50 0,0
23.10.2020 22:00:00 -2,5 -4,4 7 4 11 6 W 997,9 50 0,0
23.10.2020 21:00:00 -2,4 -4,4 6 3 18 10 NW 997,6 16 0,0
23.10.2020 20:00:00 -2,5 -4,8 10 6 23 12 WNW 997,2 20 0,0
23.10.2020 19:00:00 -3,0 -5,3 9 5 19 11 WNW 996,8 45 0,0
23.10.2020 18:00:00 -4,1 -7,2 9 5 24 13 WNW 996,8 50 0,0
23.10.2020 17:00:00 -2,6 -6,9 18 10 32 17 NW 996,3 50 0,0
23.10.2020 16:00:00 -2,9 -6,2 7 4 17 9 N 996,3 50 0,0
23.10.2020 15:00:00 -2,5 -6,1 9 5 16 8 NW 995,9 50 0,0
23.10.2020 14:00:00 -2,2 -6,0 14 8 22 12 NNW 995,5 50 0,0
23.10.2020 13:00:00 -2,1 -5,1 5 3 11 6 W 994,9 50 0,0
23.10.2020 12:00:00 -2,3 -5,3 5 3 13 7 N 994,9 7 0,0
23.10.2020 11:00:00 -2,4 -5,7 7 4 13 7 NNW 994,4 50 0,0
23.10.2020 10:00:00 -3,1 -5,4 6 3 13 7 NNW 994,2 50 0,0
23.10.2020 09:00:00 -3,6 -5,3 8 4 18 10 NNO 994,0 50 0,0
23.10.2020 08:00:00 -3,3 -4,9 10 5 15 8 NNO 993,5 50 0,5
23.10.2020 07:00:00 -2,8 -3,9 4 2 8 5 NNW 993,4 1,1 0,9
23.10.2020 06:00:00 -2,8 -4,4 5 3 11 6 NW 993,6 1,4 0,2
23.10.2020 05:00:00 -2,7 -5,2 5 3 17 9 NNW 994,0 6 0,0
23.10.2020 04:00:00 -2,3 -5,0 9 5 23 12 ZW 994,6 4,3 0,1
23.10.2020 03:00:00 -3,3 -5,5 4 2 9 5 O 995,3 36 0,0
23.10.2020 02:00:00 -4,0 -6,3 7 4 13 7 NNO 995,9 19 0,0
23.10.2020 01:00:00 -4,1 -6,4 10 6 14 7 N 996,2 13 0,0
23.10.2020 00:00:00 -4,3 -6,6 11 6 15 8 N 996,8 8 0,0
22.10.2020 23:00:00 -4,5 -6,8 10 5 14 8 N 997,2 50 0,0
22.10.2020 22:00:00 -4,3 -6,4 7 4 11 6 NNO 997,5 5 0,0
22.10.2020 21:00:00 -4,4 -6,8 6 3 11 6 N 997,9 10 0,0
22.10.2020 20:00:00 -4,6 -7,2 8 5 12 7 NNO 998,1 50 0,0
22.10.2020 19:00:00 -4,8 -7,2 7 4 9 5 NNO 998,4 50 0,0
22.10.2020 18:00:00 -4,9 -7,3 5 3 10 5 NNO 998,7 50 0,0
22.10.2020 17:00:00 -4,8 -7,4 6 3 17 9 ONO 998,9 5 0,0
22.10.2020 16:00:00 -4,6 -7,7 11 6 19 11 OZO 999,2 42 0,0
22.10.2020 15:00:00 -4,6 -7,8 10 5 20 11 OZO 999,4 50 0,0
22.10.2020 14:00:00 -4,5 -7,9 10 5 21 11 O 999,7 50 0,0
22.10.2020 13:00:00 -4,5 -7,6 14 8 23 13 OZO 1000,1 50 0,0
22.10.2020 12:00:00 -4,7 -7,8 13 7 28 15 OZO 1000,5 50 0,0
22.10.2020 11:00:00 -5,0 -7,9 15 8 29 15 OZO 1000,9 50 0,0
22.10.2020 10:00:00 -5,3 -8,0 16 8 34 18 OZO 1001,1 50 0,0
22.10.2020 09:00:00 -5,5 -7,9 16 9 40 22 O 1001,4 34 0,0
22.10.2020 08:00:00 -5,6 -7,9 15 8 29 16 OZO 1001,7 50 0,0
22.10.2020 07:00:00 -5,6 -8,0 14 8 35 19 O 1001,7 50 0,0
22.10.2020 06:00:00 -5,3 -7,9 16 9 29 16 O 1002,0 50 0,0
22.10.2020 05:00:00 -5,4 -8,1 16 9 33 18 O 1002,4 50 0,0
22.10.2020 04:00:00 -5,1 -7,7 19 11 36 19 O 1002,8 50 0,0
22.10.2020 03:00:00 -5,1 -7,7 19 11 33 18 O 1003,6 21 0,0
22.10.2020 02:00:00 -4,9 -7,2 18 10 31 17 OZO 1004,3 7 0,0
22.10.2020 01:00:00 -4,7 -7,3 16 9 33 18 OZO 1005,0 21 0,0
22.10.2020 00:00:00 -4,7 -6,4 17 9 35 19 OZO 1005,4 31 0,0

tt = temperatuur
td = dauwpunt
ff = windsnelheid
fx = windstoten
dd = windrichting
ppp = luchtdruk
vv = zicht
rr = neerslag

Weerstations in de omgeving